Погода в Малокатериновке

Украина / Запорожская область     47°39′27″N   35°15′25″E
В апреле 2022 года жителям России запретили посещать сайт meteo.paraplan.net по решению Генеральной прокуратуры. Аудитория сайта уменьшилась в 10 раз. Владельцы сайта не видят смысла в поддержке погодного сервера в таких условиях. Сайт будет закрыт в октябре.
темп.,
°C
ветер,
м/с
пор.,
м/с
влажн.,
%
обл.,
%
осадки,
мм/ч
давл.,
гПа
погр.,
м
30 сентября, пт
пт3000:00+17ююв4969100 0.0 1014249
03:00+16юв397597 0.0 1014204
06:00+16юв41084100 0.0 1015248
09:00+20ююв51077100 0.0 1015449
12:00+21ююз266447 0.0 1016347
15:00+26ююз474321 0.3 10151250
18:00+22ю2357100 0.6 101666
21:00+19ю511755 2.6 1017299
1 октября, сб
сб100:00+18ю3481100 0.3 101788
03:00+17ююз23845 0.3 101854
06:00+17юз23904 0.0 101847
09:00+20юз3575100 0.0 1019254
12:00+24юз465499 0.0 1018598
15:00+27юз5741100 0.0 10171270
18:00+24юз344993 0.0 1016109
21:00+21ю375891 0.0 1016139
2 октября, вс
вс200:00+19ююз3868100 0.0 1015192
03:00+19ю3773100 0.0 1013168
06:00+19ю4977100 0.0 1011251
09:00+20юз51066100 0.1 1011538
12:00+22ююз3760100 0.0 1009656
15:00+18ююз3683100 1.3 1006367
18:00+17ююв61389100 4.4 1003764
21:00+17зсз5987100 8.4 1002639
3 октября, пн
пн300:00+16зсз5986100 0.6 1002612
03:00+15зсз5882100 0.7 1003731
06:00+12сз71181100 0.2 1005817
09:00+12зсз577787 0.4 1008847
12:00+16з685829 0.2 10091403
15:00+15зсз685755 0.8 10101342
18:00+14з5762100 0.3 1012619
21:00+12з477155 0.4 1014314
4 октября, вт
вт400:00+11з477732 0.0 1015331
03:00+10з35825 0.0 1016162
06:00+9з34875 0.0 1017134
09:00+12зюз35668 0.0 1018440
12:00+15зюз564881 0.0 10181600
15:00+17зюз574298 0.0 10181759
18:00+15з365265 0.0 1019331
21:00+13з126289 0.0 102092